[[{"header":{"parameterUnit":"m.s-1","parameterCategory":1,"la1":30.2991,"la2":30.254,"lo1":-89.0895,"lo2":-89.0444,"dy":0.0017,"dx":0.0017,"nx":28,"ny":28,"refTime":"2025-08-07T09:00:00:Z","depth":0,"parameterNumber":2,"parameterNumberName":"U-component_of_WINDS"},"data":[0,0,0,0,0,0,0,0,0,0,0,0,0,0,0,0,0,0,0,0,0,0,0,0,0,0,0,0,0,0,0,0,0,0,0,0,0,0,0,0,0,0,0,0,0,0,0,0,0,0,0,0,0,0,0,0,0,0,-2.3283,-2.3282,0,-2.3192,-2.3191,-2.319,-2.3076,-2.3074,-2.3072,-2.307,-2.2981,-2.298,-2.298,0,0,0,0,0,0,0,0,0,0,0,0,0,-2.3363,-2.3363,-2.3283,-2.3282,-2.3281,-2.3192,-2.3191,-2.319,-2.3076,-2.3074,-2.3072,-2.3069,-2.2981,-2.298,-2.298,0,0,0,0,0,0,0,0,0,0,0,0,0,-2.3306,-2.3362,-2.3284,-2.3213,-2.3206,-2.3192,-2.3191,-2.3189,-2.3077,-2.3074,-2.3071,-2.3068,-2.2982,-2.2981,-2.298,-2.3028,0,0,-2.2976,-2.2976,0,0,0,0,0,0,0,0,-2.331,-2.3304,-2.3225,-2.3218,-2.321,-2.3142,-2.3186,-2.3136,-2.3077,-2.3126,-2.307,-2.3067,-2.3037,-2.3031,-2.302,-2.3024,-2.302,-2.2976,-2.2976,-2.2975,-2.2975,0,0,0,0,0,0,0,-2.3314,-2.3307,-2.3247,-2.3224,-2.3215,-2.3188,-2.3177,-2.3176,-2.3098,-2.3121,-2.3113,-2.3104,-2.3033,-2.3022,-2.3018,-2.3019,-2.2976,-2.2976,-2.2975,-2.2975,-2.306,-2.3063,0,0,0,0,0,0,-2.3328,-2.3311,-2.325,-2.3244,-2.3254,-2.3189,-2.3176,-2.3167,-2.3098,-2.3085,-2.3106,-2.3099,-2.3025,-2.3019,-2.3014,-2.3068,-2.2975,-2.2974,-2.2974,-2.3057,-2.3061,-2.3064,0,0,0,0,0,0,-2.333,-2.3323,-2.3254,-2.3275,-2.3264,-2.319,-2.3181,-2.3167,-2.3155,-2.3086,-2.3072,-2.3109,-2.3022,-2.3015,-2.3026,-2.3063,-2.2974,-2.2973,-2.3054,-2.3058,-2.3062,-2.3175,0,0,0,0,0,0,-2.3333,-2.3325,-2.3341,-2.3276,-2.3264,-2.3266,-2.3183,-2.3167,-2.3154,-2.3143,-2.3085,-2.3073,-2.302,-2.3028,-2.3025,-2.306,-2.2972,-2.305,-2.3056,-2.3061,-2.3168,-2.3183,-2.3196,0,0,0,0,0,-2.3336,-2.3377,-2.3343,-2.3336,-2.3283,-2.3268,-2.3261,-2.3198,-2.3157,-2.3174,-2.313,-2.3075,-2.3059,-2.303,-2.3025,-2.3061,-2.3048,-2.3054,-2.306,-2.3162,-2.318,-2.3195,0,0,0,0,0,0,-2.3449,-2.3367,-2.3328,-2.335,-2.3317,-2.3249,-2.3268,-2.3219,-2.3198,-2.3189,-2.3113,-2.3101,-2.3121,-2.3092,-2.306,-2.3105,-2.3045,-2.3051,-2.3124,-2.3141,-2.3154,-2.3161,-2.2971,0,0,0,0,0,-2.3477,-2.3471,-2.34,-2.3426,-2.3411,-2.3343,-2.3334,-2.3289,-2.3252,-2.3238,-2.3194,-2.3162,-2.315,-2.3143,-2.3128,-2.3163,-2.315,-2.3185,-2.3199,-2.3211,-2.3217,-2.3235,-2.3251,-2.3085,-2.3085,-2.3085,0,0,-2.3534,-2.3488,-2.3489,-2.3447,-2.3416,-2.3414,-2.3332,-2.3332,-2.3329,-2.3238,-2.3245,-2.3212,-2.3171,-2.3195,-2.3203,-2.3171,-2.326,-2.3219,-2.3229,-2.3229,-2.3244,-2.3259,-2.3273,-2.3089,-2.3089,-2.3088,0,0,-2.3636,-2.36,-2.3618,-2.3589,-2.3543,-2.3497,-2.3502,-2.3442,-2.3416,-2.3422,-2.3354,-2.3351,-2.3331,-2.3305,-2.3289,-2.3384,-2.3333,-2.3381,-2.3454,-2.3472,-2.3485,-2.3497,-2.3532,-2.3545,-2.3387,-2.3388,-2.3388,0,-2.3713,-2.3704,-2.3634,-2.3638,-2.3623,-2.3539,-2.3558,-2.3534,-2.3486,-2.3478,-2.3443,-2.3417,-2.3384,-2.34,-2.3424,-2.3413,-2.3418,-2.3387,-2.3489,-2.3499,-2.3509,-2.3542,-2.3555,-2.3394,-2.3393,-2.3392,-2.3392,0,-2.3801,-2.3797,-2.3817,-2.3772,-2.3759,-2.3771,-2.3705,-2.37,-2.3656,-2.3615,-2.3623,-2.358,-2.3555,-2.3556,-2.3513,-2.3567,-2.3549,-2.3503,-2.3441,-2.3532,-2.3562,-2.3574,-2.3403,-2.34,-2.3399,-2.3397,0,0,-2.3972,-2.3889,-2.3898,-2.3877,-2.3821,-2.3817,-2.3826,-2.38,-2.3799,-2.3769,-2.3776,-2.3762,-2.3719,-2.3701,-2.3655,-2.3671,-2.375,-2.3622,-2.362,-2.3649,-2.381,-2.3846,-2.3861,-2.3716,-2.3718,-2.372,-2.3813,0,-2.4064,-2.4074,-2.4012,-2.4038,-2.4034,-2.3956,-2.3964,-2.3931,-2.3894,-2.3886,-2.3844,-2.3836,-2.3779,-2.3768,-2.378,-2.3738,-2.3782,-2.373,-2.3724,-2.3724,-2.3737,-2.3876,-2.3914,-2.4005,-2.3824,-2.3826,-2.3828,0,-2.4173,-2.4149,-2.4175,-2.4119,-2.4115,-2.4123,-2.4096,-2.4089,-2.4051,-2.4023,-2.4004,-2.3951,-2.3957,-2.3898,-2.3908,-2.3874,-2.3868,-2.3847,-2.3849,-2.3847,-2.3782,-2.3879,-2.4032,-2.4046,-2.3845,-2.3843,-2.3842,0,-2.4297,-2.4271,-2.4284,-2.4268,-2.4203,-2.4211,-2.4184,-2.4143,-2.4133,-2.411,-2.4102,-2.4081,-2.407,-2.4055,-2.3998,-2.396,-2.4015,-2.3951,-2.3993,-2.3995,-2.4009,-2.4009,-2.4164,-2.4004,-2.4003,-2.4003,-2.4003,0,-2.4408,-2.4427,-2.4338,-2.4346,-2.4367,-2.4296,-2.4319,-2.4284,-2.4249,-2.425,-2.4181,-2.4184,-2.4108,-2.4103,-2.4059,-2.4074,-2.4069,-2.4048,-2.4036,-2.4055,-2.4058,-2.405,-2.4043,-2.4007,-2.4006,-2.4005,-2.4005,0,-2.455,-2.4491,-2.4499,-2.4437,-2.4421,-2.4439,-2.4386,-2.4392,-2.435,-2.4353,-2.4349,-2.4285,-2.4275,-2.4217,-2.4194,-2.4164,-2.4197,-2.4172,-2.421,-2.4202,-2.4249,-2.4246,-2.4405,-2.4423,-2.425,-2.4252,-2.4254,0,-2.4624,-2.4637,-2.4576,-2.4572,-2.4548,-2.4541,-2.453,-2.4462,-2.4454,-2.4413,-2.4424,-2.4409,-2.4393,-2.4382,-2.4334,-2.4317,-2.4293,-2.435,-2.429,-2.4309,-2.4295,-2.4296,-2.4298,-2.4363,-2.4365,-2.4367,-2.4368,0,-2.4764,-2.4734,-2.472,-2.4697,-2.4686,-2.4664,-2.4638,-2.4639,-2.4564,-2.4559,-2.4548,-2.4536,-2.4513,-2.45,-2.4474,-2.4448,-2.4397,-2.4388,-2.4397,-2.4417,-2.4438,-2.4429,-2.4246,-2.4384,-2.4383,-2.4382,-2.4381,-2.438,-2.4875,-2.4884,-2.4842,-2.483,-2.4803,-2.4781,-2.4784,-2.4743,-2.4732,-2.4707,-2.4668,-2.4664,-2.4627,-2.4588,-2.4567,-2.4563,-2.4533,-2.4546,-2.455,-2.4554,-2.4565,-2.4438,-2.4558,-2.4558,-2.4557,-2.4557,-2.4556,0,-2.5012,-2.4982,-2.4971,-2.4937,-2.4928,-2.4879,-2.4849,-2.4845,-2.4841,-2.4811,-2.4797,-2.4786,-2.4773,-2.4724,-2.4706,-2.4713,-2.4689,-2.4711,-2.4711,-2.4706,-2.4592,-2.4586,-2.4731,-2.4731,-2.4731,-2.4731,-2.4731,-2.4731,-2.5083,-2.5095,-2.5061,-2.5061,-2.503,-2.5024,-2.5012,-2.4992,-2.4967,-2.4958,-2.4946,-2.4914,-2.4877,-2.4857,-2.4843,-2.4829,-2.4827,-2.4857,-2.4836,-2.473,-2.4714,-2.4698,-2.4692,-2.4857,-2.4857,-2.495,-2.4951,-2.4952]},{"header":{"parameterUnit":"m.s-1","parameterCategory":1,"la1":30.2991,"la2":30.254,"lo1":-89.0895,"lo2":-89.0444,"dy":0.0017,"dx":0.0017,"nx":28,"ny":28,"refTime":"2025-08-07T09:00:00:Z","depth":0,"parameterNumber":3,"parameterNumberName":"V-component_of_WINDS"},"data":[0,0,0,0,0,0,0,0,0,0,0,0,0,0,0,0,0,0,0,0,0,0,0,0,0,0,0,0,0,0,0,0,0,0,0,0,0,0,0,0,0,0,0,0,0,0,0,0,0,0,0,0,0,0,0,0,0,0,-1.7605,-1.7605,0,-1.766,-1.766,-1.7661,-1.7662,-1.7661,-1.7661,-1.766,-1.7713,-1.7715,-1.7717,0,0,0,0,0,0,0,0,0,0,0,0,0,-1.7497,-1.7499,-1.7605,-1.7605,-1.7606,-1.7659,-1.766,-1.7661,-1.7662,-1.7661,-1.766,-1.766,-1.7712,-1.7715,-1.7717,0,0,0,0,0,0,0,0,0,0,0,0,0,-1.7547,-1.7499,-1.7604,-1.7613,-1.7614,-1.7659,-1.766,-1.7661,-1.7662,-1.7661,-1.766,-1.7659,-1.7711,-1.7714,-1.7717,-1.7757,0,0,-1.7727,-1.7728,0,0,0,0,0,0,0,0,-1.7544,-1.7551,-1.7611,-1.7613,-1.7614,-1.7653,-1.7642,-1.7693,-1.7662,-1.7644,-1.766,-1.7659,-1.7694,-1.7698,-1.771,-1.7759,-1.7761,-1.7727,-1.7729,-1.773,-1.7731,0,0,0,0,0,0,0,-1.754,-1.7548,-1.7626,-1.7612,-1.7614,-1.7613,-1.7619,-1.7651,-1.7674,-1.7645,-1.7646,-1.7652,-1.7694,-1.7707,-1.7712,-1.7762,-1.7727,-1.773,-1.7732,-1.7733,-1.7844,-1.7845,0,0,0,0,0,0,-1.7536,-1.7545,-1.7624,-1.7628,-1.7576,-1.7616,-1.7622,-1.7641,-1.7673,-1.7677,-1.7653,-1.7652,-1.7703,-1.7708,-1.7714,-1.7761,-1.773,-1.7733,-1.7735,-1.7843,-1.7844,-1.7845,0,0,0,0,0,0,-1.7533,-1.7543,-1.7622,-1.7587,-1.7597,-1.7619,-1.764,-1.7643,-1.7656,-1.7679,-1.7683,-1.7663,-1.7702,-1.7709,-1.7746,-1.7762,-1.7734,-1.7737,-1.7841,-1.7843,-1.7845,-1.7856,0,0,0,0,0,0,-1.753,-1.7542,-1.7558,-1.7587,-1.7599,-1.7655,-1.7641,-1.7645,-1.7662,-1.7661,-1.7689,-1.7693,-1.7702,-1.7741,-1.7749,-1.7766,-1.774,-1.784,-1.7842,-1.7844,-1.7854,-1.7857,-1.786,0,0,0,0,0,-1.7527,-1.7559,-1.7559,-1.7568,-1.762,-1.7656,-1.7662,-1.7673,-1.7663,-1.7679,-1.7693,-1.7692,-1.7759,-1.7745,-1.7753,-1.7772,-1.7839,-1.7842,-1.7844,-1.7852,-1.7857,-1.786,0,0,0,0,0,0,-1.753,-1.7563,-1.7563,-1.7606,-1.7628,-1.7656,-1.7676,-1.7677,-1.7702,-1.77,-1.7711,-1.7717,-1.7754,-1.7766,-1.775,-1.7811,-1.7798,-1.7802,-1.7801,-1.7806,-1.7809,-1.7805,-1.7742,0,0,0,0,0,-1.7536,-1.7564,-1.759,-1.7625,-1.7637,-1.7654,-1.7671,-1.7677,-1.77,-1.7709,-1.7726,-1.7747,-1.7773,-1.779,-1.7815,-1.7855,-1.7861,-1.7872,-1.7876,-1.7878,-1.7882,-1.7903,-1.7908,-1.7853,-1.7853,-1.7853,0,0,-1.7548,-1.757,-1.7586,-1.7627,-1.7645,-1.7672,-1.7662,-1.7692,-1.7712,-1.7713,-1.7749,-1.7762,-1.7786,-1.7825,-1.7842,-1.7836,-1.7898,-1.7881,-1.7883,-1.7886,-1.7906,-1.7911,-1.7915,-1.7855,-1.7855,-1.7855,0,0,-1.7585,-1.7604,-1.7635,-1.7653,-1.7681,-1.7692,-1.7699,-1.7727,-1.7736,-1.7772,-1.7773,-1.7796,-1.7841,-1.7858,-1.7872,-1.7914,-1.7913,-1.7921,-1.7939,-1.7959,-1.7963,-1.7967,-1.7981,-1.7986,-1.7925,-1.7925,-1.7925,0,-1.7596,-1.7639,-1.7651,-1.768,-1.7697,-1.77,-1.7731,-1.7747,-1.7781,-1.7792,-1.7785,-1.7841,-1.7857,-1.7899,-1.7909,-1.7921,-1.7928,-1.7918,-1.7962,-1.7966,-1.797,-1.7983,-1.7988,-1.7926,-1.7926,-1.7926,-1.7926,0,-1.7651,-1.7681,-1.7702,-1.7736,-1.7755,-1.7785,-1.7799,-1.7817,-1.7821,-1.7833,-1.7869,-1.7889,-1.7917,-1.7928,-1.7932,-1.797,-1.7965,-1.796,-1.7947,-1.7976,-1.7988,-1.7993,-1.7927,-1.7927,-1.7926,-1.7926,0,0,-1.7693,-1.7731,-1.7739,-1.7754,-1.7783,-1.7806,-1.7835,-1.7864,-1.7878,-1.7901,-1.7925,-1.7962,-1.7957,-1.7974,-1.7979,-1.7997,-1.8028,-1.799,-1.7991,-1.7996,-1.8069,-1.8072,-1.8078,-1.8027,-1.8028,-1.8029,-1.8067,0,-1.7732,-1.7785,-1.7796,-1.7841,-1.7868,-1.787,-1.7895,-1.7915,-1.7927,-1.7949,-1.7961,-1.7987,-1.798,-1.7989,-1.8007,-1.802,-1.8042,-1.8018,-1.8048,-1.8049,-1.8042,-1.8085,-1.8089,-1.8124,-1.8072,-1.8073,-1.8073,0,-1.7785,-1.781,-1.7858,-1.7884,-1.7895,-1.7918,-1.7944,-1.7967,-1.7989,-1.7996,-1.8013,-1.8017,-1.8046,-1.8031,-1.807,-1.8053,-1.8066,-1.8074,-1.8076,-1.8079,-1.8063,-1.8089,-1.8135,-1.814,-1.8081,-1.8081,-1.808,0,-1.7809,-1.7854,-1.7889,-1.7902,-1.7932,-1.7948,-1.7961,-1.7982,-1.7999,-1.8021,-1.8032,-1.8057,-1.8071,-1.809,-1.8099,-1.8089,-1.8137,-1.8124,-1.8143,-1.8142,-1.8153,-1.8152,-1.8202,-1.8162,-1.8162,-1.8162,-1.8162,0,-1.7852,-1.7881,-1.79,-1.7922,-1.7954,-1.7965,-1.7996,-1.8009,-1.8028,-1.805,-1.8053,-1.8074,-1.8086,-1.8108,-1.8116,-1.8146,-1.8152,-1.8158,-1.8159,-1.8157,-1.8157,-1.8166,-1.8163,-1.8163,-1.8163,-1.8162,-1.8162,0,-1.7885,-1.7899,-1.7937,-1.7962,-1.7969,-1.7992,-1.8013,-1.8033,-1.8044,-1.8073,-1.808,-1.8096,-1.8123,-1.8134,-1.8166,-1.8171,-1.8205,-1.8206,-1.8198,-1.8199,-1.8216,-1.8214,-1.8273,-1.8281,-1.8237,-1.8237,-1.8237,0,-1.7911,-1.7934,-1.7962,-1.7978,-1.7991,-1.8017,-1.8034,-1.8044,-1.8061,-1.8088,-1.8104,-1.813,-1.8152,-1.8193,-1.8207,-1.8231,-1.8232,-1.8251,-1.8235,-1.8232,-1.8231,-1.8229,-1.8231,-1.8253,-1.8254,-1.8254,-1.8254,0,-1.7956,-1.7961,-1.7986,-1.8012,-1.8032,-1.8054,-1.8074,-1.8087,-1.81,-1.8119,-1.8146,-1.8163,-1.8195,-1.8221,-1.8246,-1.8258,-1.8258,-1.8259,-1.8265,-1.8263,-1.8257,-1.826,-1.8205,-1.8258,-1.8257,-1.8257,-1.8257,-1.8257,-1.7986,-1.8005,-1.8028,-1.8055,-1.8072,-1.8091,-1.811,-1.8124,-1.8147,-1.8175,-1.8179,-1.8208,-1.8228,-1.8261,-1.8274,-1.8295,-1.8291,-1.8299,-1.8301,-1.8302,-1.8303,-1.8254,-1.83,-1.83,-1.83,-1.83,-1.83,0,-1.803,-1.8044,-1.8069,-1.8098,-1.8118,-1.8118,-1.814,-1.8157,-1.8182,-1.8202,-1.8223,-1.8253,-1.8278,-1.8293,-1.8318,-1.8332,-1.8332,-1.8338,-1.8336,-1.8339,-1.8306,-1.8299,-1.8337,-1.8337,-1.8337,-1.8337,-1.8337,-1.8337,-1.8055,-1.8089,-1.8097,-1.8138,-1.8151,-1.818,-1.8193,-1.821,-1.8225,-1.8259,-1.828,-1.829,-1.8307,-1.8333,-1.8355,-1.8359,-1.8367,-1.8373,-1.8376,-1.8345,-1.8341,-1.8338,-1.8331,-1.8375,-1.8375,-1.8407,-1.8407,-1.8407]}]]